Red Bluff, CA

6:21 PM PDT on September 29, 2016 (GMT -0700)
Red Bluff Municipal

Weather History for KRBL - January, 2013

Change the Weather History Date:

Thursday, January 17, 2013

  Actual Average Record
Temperature  
Mean Temperature 48 °F -  
Max Temperature 61 °F 56 °F 76 °F (1991)
Min Temperature 33 °F 38 °F 19 °F (2012)
Degree Days  
Heating Degree Days 18    
Moisture  
Dew Point 30 °F    
Average Humidity 59    
Maximum Humidity 85    
Minimum Humidity 29    
Precipitation  
Precipitation 0.00 in - - ()
Sea Level Pressure  
Sea Level Pressure 30.25 in    
Wind  
Wind Speed 4 mph (NW)    
Max Wind Speed 8 mph    
Max Gust Speed -    
Visibility 10 miles    
Events      
Averages and records for this station are not official NWS values.
T = Trace of Precipitation, MM = Missing Value Source: NWS Daily Summary

Daily Weather History Graph

Daily Weather History Graph

Search for Another Location

Airport or City:

Trip Planner

Search our weather history database for the weather conditions in past years. The results will help you decide how hot, cold, wet, or windy it might be!

Date:

Astronomy

Jan. 17, 2013 Rise Set
Actual Time 7:28 AM PST 5:10 PM PST
Civil Twilight 6:58 AM PST 5:40 PM PST
Nautical Twilight 6:25 AM PST 6:13 PM PST
Astronomical Twilight 5:52 AM PST 6:45 PM PST
Moon 10:37 AM PST (1/17) No Moon Set
Length of Visible Light 10h 41m
Length of Day
9h 42m
Waxing Crescent, 39% of the Moon is Illuminated
Jan 17
Waxing Crescent
Jan 18
First Quarter
Jan 26
Full
Feb 3
Last Quarter
Feb 9
New

Hourly Weather History & Observations

Time (PST) Temp. Windchill Dew Point Humidity Pressure Visibility Wind Dir Wind Speed Gust Speed Precip Events Conditions
12:54 AM 34.0 °F 29.8 °F 28.0 °F 79% 30.31 in 10.0 mi North 4.6 mph - N/A   Clear
1:54 AM 34.0 °F 28.8 °F 27.0 °F 75% 30.30 in 10.0 mi NNW 5.8 mph - N/A   Clear
2:54 AM 35.1 °F 28.6 °F 25.0 °F 67% 30.30 in 10.0 mi NNW 8.1 mph - N/A   Clear
3:54 AM 39.9 °F 35.1 °F 23.0 °F 51% 30.28 in 10.0 mi NW 6.9 mph - N/A   Clear
4:54 AM 37.9 °F 32.7 °F 21.9 °F 53% 30.26 in 10.0 mi North 6.9 mph - N/A   Clear
5:54 AM 39.9 °F 35.8 °F 21.9 °F 49% 30.27 in 10.0 mi North 5.8 mph - N/A   Clear
6:54 AM 35.1 °F - 23.0 °F 61% 30.27 in 10.0 mi Calm Calm - N/A   Clear
7:54 AM 34.0 °F - 24.1 °F 67% 30.29 in 9.0 mi Calm Calm - N/A   Clear
8:54 AM 37.9 °F - 28.9 °F 70% 30.30 in 10.0 mi Calm Calm - N/A   Clear
9:54 AM 43.0 °F - 30.9 °F 62% 30.31 in 10.0 mi Calm Calm - N/A   Clear
10:54 AM 48.9 °F - 32.0 °F 52% 30.30 in 10.0 mi Calm Calm - N/A   Clear
11:54 AM 54.0 °F - 34.0 °F 47% 30.26 in 10.0 mi Calm Calm - N/A   Clear
12:54 PM 57.9 °F - 32.0 °F 37% 30.22 in 10.0 mi ESE 3.5 mph - N/A   Clear
1:54 PM 60.1 °F - 34.0 °F 38% 30.19 in 10.0 mi SSE 3.5 mph - N/A   Clear
2:54 PM 61.0 °F - 34.0 °F 36% 30.18 in 10.0 mi SSE 3.5 mph - N/A   Clear
3:54 PM 61.0 °F - 37.0 °F 41% 30.17 in 10.0 mi South 4.6 mph - N/A   Clear
4:54 PM 55.0 °F - 37.0 °F 51% 30.19 in 10.0 mi SSE 4.6 mph - N/A   Clear
5:54 PM 48.9 °F - 35.1 °F 59% 30.20 in 10.0 mi Calm Calm - N/A   Clear
6:54 PM 45.0 °F - 35.1 °F 68% 30.21 in 10.0 mi Calm Calm - N/A   Clear
7:54 PM 39.9 °F - 34.0 °F 79% 30.22 in 10.0 mi Calm Calm - N/A   Clear
8:54 PM 37.0 °F 33.3 °F 32.0 °F 82% 30.23 in 10.0 mi WNW 4.6 mph - N/A   Clear
9:54 PM 35.1 °F 31.0 °F 30.0 °F 82% 30.24 in 10.0 mi WNW 4.6 mph - N/A   Clear
10:54 PM 35.1 °F 30.1 °F 30.0 °F 82% 30.24 in 10.0 mi WNW 5.8 mph - N/A   Clear
11:54 PM 33.1 °F 30.0 °F 28.9 °F 85% 30.24 in 10.0 mi WNW 3.5 mph - N/A   Clear